#timestamp,LO_Frequency,Hit 
1501887615.2,286047036.5,N
1501887635.1,286047038.1,N
1501887636.0,286047038.1,N
1501887655.8,286047040.5,N
1501887675.6,286047042.4,N
1501887695.5,286047042.8,N
1501887715.3,286047040.5,N
1501887735.1,286047040.4,N
1501887755.9,286047040.5,N
1501887775.7,286047041.1,N
1501887795.5,286047042.7,N
1501887815.4,286047040.1,N
1501887835.2,286047040.9,N
1501887855.0,286047040.6,N
1501887855.9,286047040.6,N
1501887875.7,286047041.0,N
1501887895.6,286047040.3,N
1501887915.4,286047040.6,N
1501887935.2,286047040.5,N
1501887955.1,286047038.8,N
1501887956.0,286047038.8,N
1501887975.8,286047041.0,N
1501887995.6,286047041.0,N
1501888015.5,286047040.9,N
1501888035.3,286047039.8,N
1501888055.1,286047039.7,N
1501888075.9,286047041.1,N
1501888095.7,286047040.7,N
1501888115.5,286047040.1,N
1501888135.4,286047040.0,N
1501888155.2,286047042.2,N
1501888175.0,286047041.3,N
1501888175.9,286047041.3,N
1501888195.7,286047042.1,N
1501888215.6,286047041.9,N
1501888235.4,286047041.9,N
1501888255.2,286047042.3,N
1501888275.1,286047042.6,N
1501888276.0,286047042.6,N
1501888295.8,286047042.6,N
1501888315.6,286047042.0,N
1501888335.5,286047041.6,N
1501888355.3,286047041.8,N
1501888375.1,286047039.9,N
1501888395.9,286047040.6,N
1501888415.7,286047038.7,N
1501888435.5,286047040.8,N
1501888455.3,286047041.0,N
1501888475.2,286047038.1,N
1501888495.0,286047040.5,N
1501888495.9,286047040.5,N
1501888515.7,286047038.2,N
1501888535.6,286047038.5,N
1501888555.4,286047036.6,N
1501888575.2,286047038.8,N
1501888595.1,286047040.4,N
1501888596.0,286047040.4,N
1501888615.8,286047039.7,N
1501888635.6,286047042.4,N
1501888655.5,286047040.1,N
1501888675.3,286047042.2,N
1501888695.1,286047039.8,N
1501888715.9,286047044.2,N
1501888735.7,286047043.5,N
1501888755.5,286047044.4,N
1501888775.3,286047044.2,N
1501888795.2,286047043.7,N
1501888815.0,286047044.0,N
1501888815.9,286047044.0,N
1501888835.7,286047045.6,N
1501888855.6,286047043.4,N
1501888875.4,286047043.3,N
1501888895.2,286047043.6,N
1501888915.1,286047044.7,N
1501888916.0,286047044.7,N
1501888935.8,286047045.8,N
1501888955.6,286047045.7,N
1501888975.5,286047045.4,N
1501888995.3,286047043.1,N
1501889015.1,286047044.1,N
1501889035.9,286047043.1,N
1501889055.7,286047043.5,N
1501889075.5,286047045.1,N
1501889095.3,286047044.8,N
1501889115.2,286047045.1,N
1501889135.0,286047047.5,N
1501889135.9,286047047.5,N
1501889155.7,286047044.8,N
1501889175.6,286047045.7,N
1501889195.4,286047045.0,N
1501889215.2,286047045.3,N
1501889235.1,286047045.7,N
1501889236.0,286047045.7,N
1501889255.8,286047045.2,N
1501889275.6,286047045.9,N
1501889295.5,286047045.0,N
1501889315.3,286047045.6,N
1501889335.1,286047047.5,N
1501889355.8,286047048.8,N
1501889375.7,286047046.7,N
1501889395.5,286047046.1,N
1501889415.3,286047048.6,N
1501889435.2,286047048.5,N
1501889455.9,286047046.7,N
1501889475.7,286047047.2,N
1501889495.6,286047046.2,N
1501889515.4,286047046.1,N
1501889535.2,286047048.7,N
1501889555.1,286047048.8,N
1501889556.0,286047048.8,N
1501889575.8,286047046.4,N
1501889595.6,286047048.9,N
1501889615.4,286047048.5,N
1501889635.3,286047050.5,N
1501889655.1,286047048.3,N
1501889675.8,286047048.6,N
1501889695.7,286047049.1,N
1501889715.5,286047048.5,N
1501889735.3,286047048.6,N
1501889755.2,286047048.2,N
1501889775.9,286047050.7,N
1501889795.7,286047048.9,N
1501889815.6,286047050.7,N
1501889835.4,286047047.8,N
1501889855.2,286047047.9,N
1501889875.0,286047047.9,N
1501889875.9,286047047.9,N
1501889895.8,286047049.4,N
1501889915.6,286047049.7,N
1501889935.4,286047052.2,N
1501889955.3,286047052.1,N
1501889975.1,286047051.1,N
1501889995.8,286047051.9,N
1501890015.7,286047049.8,N
1501890035.5,286047051.5,N
1501890055.3,286047051.2,N
1501890075.2,286047049.3,N
1501890095.9,286047051.9,N
1501890115.7,286047051.6,N
1501890135.5,286047053.7,N
1501890155.4,286047053.8,N
1501890175.2,286047051.1,N
1501890195.0,286047051.1,N
1501890195.9,286047051.1,N
1501890215.8,286047051.6,N
1501890235.6,286047052.4,N
1501890255.4,286047051.4,N
1501890275.3,286047051.5,N
1501890295.1,286047051.1,N
1501890296.0,286047051.1,N
1501890315.8,286047051.0,N
1501890335.7,286047053.9,N
1501890355.5,286047051.0,N
1501890375.3,286047053.8,N
1501890395.1,286047051.6,N
1501890415.9,286047053.0,N
1501890435.7,286047055.3,N
1501890455.5,286047055.2,N
1501890475.4,286047053.2,N
1501890495.2,286047053.8,N
1501890515.0,286047051.3,N
1501890515.9,286047051.3,N
1501890535.8,286047051.4,N
1501890555.6,286047051.8,N
1501890575.4,286047053.9,N
1501890595.3,286047052.9,N
1501890615.1,286047054.0,N
1501890616.0,286047054.0,N
1501890635.8,286047052.5,N
1501890655.7,286047057.2,N
1501890675.5,286047055.5,N
1501890695.3,286047055.3,N
1501890715.1,286047052.8,N
1501890735.9,286047052.9,N
1501890755.7,286047052.8,N
1501890775.5,286047055.0,N
1501890795.4,286047055.6,N
1501890815.2,286047056.4,N
1501890835.0,286047054.5,N
1501890835.9,286047054.5,N
1501890855.8,286047055.1,N
1501890875.6,286047054.8,N
1501890895.4,286047055.1,N
1501890915.2,286047054.3,N
1501890935.1,286047054.7,N
1501890936.0,286047054.7,N
1501890955.8,286047055.3,N
1501890975.6,286047052.5,N
1501890995.5,286047055.5,N
1501891015.3,286047053.0,N
1501891035.1,286047055.6,N
1501891055.9,286047054.7,N
1501891075.7,286047057.2,N
1501891095.5,286047056.0,N
1501891115.4,286047056.9,N
1501891135.2,286047056.4,N
1501891155.0,286047056.7,N
1501891155.9,286047056.7,N
1501891175.8,286047056.2,N
1501891195.6,286047056.0,N
